NOAA 16 DEB, 41220

Orbit data source: Space-Track

NOAA 16 DEB, 41220 is space debris in SSO originally from a launch on Thu, 21 Sep 2000 UTC launched from the Air Force Western Test Range (AFWTR). Debris objects in space refer to the collection of defunct objects orbiting the Earth. Examples of debris include non-operational satellites, rocket bodies, and fragments generated from explosions, collisions, or faulty payload assembly.

Loading next visibility...
Identifier
41220, 2000-055DZ
Orbit
SSO
Country
Flag of USUS
Related business
Manufacturer
Unknown
Mission
Spacecraft
Bus & Motor
Unknown
Mass
Unknown
Launch date (UTC)
2000-09-21 (25 years ago)
Launch vehicle
Unknown
Launch site
Air Force Western Test Range (AFWTR)
Object type
Payload
Rocket body
Debris
Shape & HBR
Unknown shape, 0.1 m
Radar Cross Section
Small (<0.1 m²)

Expand to show TLE details & history
Last TLE update: 1 day ago

TLE from 1 day ago
0 NOAA 16 DEB
1 41220U 00055DZ  25350.94374293  .00002693  00000-0  12419-2 0  9994
2 41220  98.6802  36.6492 0013356 351.4827   8.6122 14.21799497516286
Epoch: 2025-12-16T22:38Z
TLE epoch observation values (Epoch: 2025-12-16T22:38:59.389Z)
Latitude
Longitude
-28.91895°
Altitude
812.685 km
Speed
7.452 km/s
True Right ascension
02h 26m 35s
True Declination
0° 00' 00"
Sunlit
Object was in full shadow at epoch
Visualization orbit readout
Latitude
Unknown
Longitude
Unknown
Altitude
Unknown
Speed
Unknown
Apparent Right ascension
Unknown
Apparent Declination
Unknown
Sunlit
N/A
Visualization observer readout
Local Sidereal Time
23:46:18
Azimuth
Unknown
Elevation
Unknown
Doppler factor
Unknown
Orbital elements
Apogee altitude
826.037 km
Perigee altitude
806.819 km
Semi-major axis
7,194.565 km
Eccentricity
0.00134
Inclination
98.6802°
RAAN
36.6492°
Arg. of periapsis
351.4827°
True anomaly
8.63516°
Mean anomaly
8.6122°
Eccentric anomaly
8.62367°
Mean motion
3.55661 °/min
Orbital period
101.22 mins
BSTAR
0.0012419
Loading maneuver chart data...
Computing Atmospheric mass density...
Loading historical data...
Loading historical data...
Loading historical data...
Loading historical data...
Loading historical data...
Loading historical data...
Loading historical data...

Documentation

Showing up to 5 results
|